Home   Weather   Black Mountain   Past weeks

Flag for USA Past Weather in Black Mountain, North Carolina, USA — Yesterday and Last 2 Weeks

Now
50 °F

Fog.


Feels Like: 46 °F
Forecast: 52 / 64 °F
Wind: 9 mph from South

Location: Asheville Regional Airport

Current Time: Jan 17, 2017 at 12:18:15 am

Latest Report: Jan 16, 2017 at 11:41 pm


Visibility: 4 mi

Pressure: 30.28 "Hg (27.73 "Hg at 729m altitude)

Humidity: 89%

Dew Point: 47 °F

Location of Black MountainLocation

Past Weather in Black Mountain — Graph

°F

Black Mountain Temperature Yesterday

Maximum temperature yesterday: 58 °F (at 12:54 pm)
Minimum temperature yesterday: 49 °F (at 12:54 am)
Average temperature yesterday: 52 °F

High & Low Weather Summary for the Past Weeks

 TemperatureHumidityPressure
High68 °F (Jan 13, 12:54 pm)97% (Jan 14, 2:54 am)30.71 "Hg (Jan 14, 2:54 am)
Low8 °F (Jan 8, 7:54 am)29% (Jan 5, 2:54 pm)29.66 "Hg (Jan 4, 1:54 am)
Average42 °F74%30.23 "Hg
* Reported Jan 1 10:54 pm — Jan 16 10:54 pm, Black Mountain, Weather by CustomWeather, © 2017

Note: Actual official high and low records may vary slightly from our data, if they occured in-between our weather recording intervals... More about our weather records

Advertising

Black Mountain Weather History for the Previous 24 Hours

Scroll right to see more
 ConditionsComfort  
Time TempWeatherWind HumidityBarometerVisibility
10:54 pm
Mon, Jan 16
50 °FLight rain. Fog.7 mph89%30.27 "Hg4 mi
10:27 pm50 °FLight rain. Fog.5 mph93%30.30 "Hg3 mi
9:54 pm50 °FFog.5 mph93%30.29 "Hg2 mi
9:12 pm50 °FFog.7 mph93%30.31 "Hg2 mi
8:54 pm51 °FFog.8 mph89%30.29 "Hg2 mi
8:18 pm51 °FLow clouds.6 mph89%30.30 "Hg2 mi
7:54 pm52 °FFog.6 mph86%30.28 "Hg2 mi
6:54 pm52 °FOvercast.7 mph86%30.28 "Hg2 mi
6:32 pm52 °FMostly cloudy.7 mph86%30.29 "Hg2 mi
5:54 pm52 °FMostly cloudy.7 mph86%30.27 "Hg2 mi
5:33 pm53 °FMostly cloudy.8 mph86%30.29 "Hg2 mi
4:54 pm54 °FMostly cloudy.7 mph86%30.27 "Hg2 mi
4:30 pm55 °FOvercast.10 mph80%30.30 "Hg2 mi
3:54 pm57 °FMostly cloudy.9 mph72%30.26 "Hg10 mi
2:54 pm57 °FOvercast.8 mph74%30.26 "Hg10 mi
1:54 pm57 °FOvercast.6 mph72%30.27 "Hg10 mi
1:29 pm57 °FOvercast.7 mph72%30.31 "Hg10 mi
12:54 pm58 °FSunny.5 mph70%30.29 "Hg8 mi
12:29 pm57 °FPassing clouds.5 mph72%30.34 "Hg8 mi
11:54 am54 °FLow clouds.6 mph80%30.34 "Hg3 mi
10:54 am53 °FLow clouds.6 mph83%30.37 "Hg3 mi
10:01 am52 °FFog.8 mph89%30.39 "Hg2 mi
9:35 am52 °FFog.7 mph89%30.37 "Hg1 mi
9:01 am52 °FFog.6 mph89%30.36 "Hg5 mi
8:07 am51 °FFog.5 mph92%30.35 "Hg1 mi
6:54 am51 °FFog.5 mph92%30.30 "Hg5 mi
6:22 am52 °FFog.3 mph89%30.33 "Hg6 mi
6:04 am52 °FMostly cloudy.5 mph89%30.32 "Hg7 mi
4:54 am52 °FMostly cloudy.No wind89%30.27 "Hg7 mi
4:16 am52 °FMostly cloudy.3 mph89%30.30 "Hg8 mi
3:35 am50 °FOvercast.3 mph93%30.30 "Hg9 mi
2:54 am50 °FOvercast.No wind93%30.27 "Hg10 mi
1:54 am50 °FOvercast.No wind89%30.26 "Hg10 mi
12:54 am49 °FFog.No wind93%30.26 "Hg6 mi
12:23 am50 °FFog.No wind89%30.30 "Hg2 mi
Weather by CustomWeather, © 2017

See weather overviewHow to use our weather pages